Lid_Strength_Index
9 13 14 14 10 9 7 6 6 7 5 6 7 4 3 1 0 0 0 -0 -0 -2 -1 -2 -1 -1 -1 -1 -1 -1 -1 -1
11 13 10 11 9 8 7 6 5 6 9 4 3 3 2 0 0 0 1 0 -1 -1 -1 -2 -2 -1 -1 -1 -1 -1 -1 -1
13 12 10 9 7 7 7 7 7 6 9 6 3 1 1 1 0 1 0 -0 -0 -2 -2 -2 -2 -2 -2 -1 -1 -1 -1 -1
14 13 9 8 7 7 7 7 7 7 7 6 2 2 2 1 1 0 0 -0 -0 -1 -1 -1 -1 -1 -1 -1 -1 -1 -1 -1
13 13 10 9 6 7 7 7 7 5 8 6 4 2 1 1 0 0 0 0 0 -0 -1 -1 -1 -1 -1 -1 -1 -1 -2 -2
14 13 13 7 7 5 6 7 4 4 9 8 4 2 1 1 1 1 0 0 1 0 -0 -0 -0 -1 -1 -1 -1 -1 -2 -2
14 14 13 7 8 6 5 6 5 5 5 4 2 2 2 2 2 1 1 1 1 0 0 0 0 -1 -1 -1 -1 -1 -1 -2
11 12 12 7 7 7 7 8 7 6 4 3 3 3 3 4 3 3 2 1 1 0 0 0 -1 -0 0 -0 -0 -0 -0 -0
10 11 11 10 8 6 8 9 7 7 6 4 3 3 3 3 3 3 2 1 1 1 -0 0 0 -0 -0 0 0 0 0 0
11 10 12 12 7 8 7 7 5 5 4 4 4 4 3 3 3 2 2 1 1 0 0 0 0 0 -0 0 0 0 0 1
10 10 12 11 7 8 8 6 4 4 4 4 4 3 3 2 2 2 2 1 1 1 1 0 0 0 0 0 0 1 1 1
12 12 11 10 9 8 7 5 5 5 5 4 4 3 3 3 3 3 2 2 1 1 1 1 1 1 0 1 1 1 2 2
12 11 11 9 10 10 7 6 6 6 5 4 4 3 3 3 3 3 3 2 2 2 1 1 2 1 1 0 1 2 3 3
12 11 9 9 13 9 6 7 7 6 6 5 4 3 3 2 3 3 3 2 1 1 2 1 2 2 1 2 3 4 4 4
13 11 11 11 13 9 6 7 8 7 6 5 5 4 4 4 4 3 2 2 2 1 1 2 2 2 2 3 3 5 5 6
14 11 11 12 12 9 7 7 7 7 6 6 5 5 5 4 3 2 1 1 1 1 1 2 3 3 4 5 6 6 6 6
12 10 12 12 12 8 8 8 8 8 7 6 6 5 4 3 2 2 2 2 1 2 2 3 3 4 6 7 7 7 7 6
12 11 12 12 13 12 9 8 7 8 7 7 6 5 4 3 3 3 3 2 2 2 3 3 3 3 6 7 8 7 7 6
12 10 12 13 14 13 8 8 7 7 6 6 6 6 5 4 4 3 3 3 3 3 3 3 6 5 7 7 8 8 8 8
10 13 15 12 17 13 10 10 9 10 8 7 6 5 5 4 4 3 3 2 2 3 3 5 6 6 7 7 8 9 9 9